Weather History for Port Huron, MI

Change the Weather History Date:

Sunday, October 14, 2012

  Actual Average (KMTC) Record (KMTC)
Temperature  
Mean Temperature 62 °F -  
Max Temperature 68 °F 61 °F 82 °F (1975)
Min Temperature 57 °F 44 °F 27 °F (1993)
Degree Days  
Heating Degree Days 2    
Growing Degree Days 12 (Base 50)    
Moisture  
Dew Point 59 °F    
Average Humidity 86    
Maximum Humidity 100    
Minimum Humidity 68    
Precipitation  
Precipitation 0.00 in - - ()
Sea Level Pressure  
Sea Level Pressure 29.68 in    
Wind  
Wind Speed 12 mph (SSW)    
Max Wind Speed 23 mph    
Max Gust Speed 37 mph    
Visibility 8 miles    
Events Rain    
Averages and records for this station are not official NWS values.
T = Trace of Precipitation, MM = Missing Value Source: NWS Daily Summary

Daily Weather History Graph

Daily Weather History Graph

Search for Another Location

Airport:

Trip Planner

Search our weather history database for the weather conditions in past years. The results will help you decide how hot, cold, wet, or windy it might be!

Date:

Astronomy

Oct. 14, 2012 Rise Set
Actual Time 7:42 AM EDT 6:48 PM EDT
Civil Twilight 7:14 AM EDT 7:16 PM EDT
Nautical Twilight 6:41 AM EDT 7:49 PM EDT
Astronomical Twilight 6:08 AM EDT 8:22 PM EDT
Moon 6:40 AM EDT (10/14) 6:07 PM EDT (10/14)
Length of Visible Light 12h 02m
Length of Day
11h 05m
Waning Crescent, 1% of the Moon is Illuminated
Oct 14
Waning Crescent
Oct 15
New
Oct 21
First Quarter
Oct 29
Full
Nov 6
Last Quarter

Hourly Weather History & Observations

Time (EDT) Temp. Dew Point Humidity Pressure Visibility Wind Dir Wind Speed Gust Speed Precip Events Conditions
12:36 AM 57.2 °F 57.2 °F 100% 29.88 in 4.0 mi SSW 8.1 mph - N/A   Overcast
3:16 AM 59.0 °F 59.0 °F 100% 29.85 in 2.5 mi SSW 8.1 mph - N/A   Drizzle
3:36 AM 59.0 °F 59.0 °F 100% 29.85 in 2.5 mi SSW 10.4 mph - N/A Rain Rain
3:56 AM 59.0 °F 59.0 °F 100% 29.84 in 2.5 mi SSW 8.1 mph - N/A   Overcast
4:16 AM 59.0 °F 59.0 °F 100% 29.85 in 3.0 mi SSW 6.9 mph - N/A   Overcast
4:36 AM 59.0 °F 59.0 °F 100% 29.84 in 2.5 mi SSW 6.9 mph - N/A   Overcast
4:56 AM 60.8 °F 59.0 °F 94% 29.84 in 3.0 mi SSW 6.9 mph - N/A   Overcast
5:16 AM 60.8 °F 59.0 °F 94% 29.84 in 3.0 mi SSW 6.9 mph - N/A   Overcast
5:36 AM 60.8 °F 59.0 °F 94% 29.84 in 2.5 mi South 6.9 mph - N/A Rain Rain
5:56 AM 60.8 °F 59.0 °F 94% 29.84 in 2.5 mi SSW 8.1 mph - N/A Rain Light Rain
7:36 AM 60.8 °F 60.8 °F 100% 29.83 in 3.0 mi South 8.1 mph - N/A   Overcast
7:56 AM 60.8 °F 60.8 °F 100% 29.83 in 2.5 mi South 9.2 mph - N/A   Overcast
8:16 AM 60.8 °F 60.8 °F 100% 29.82 in 2.5 mi South 8.1 mph - N/A   Overcast
8:36 AM 62.6 °F 60.8 °F 94% 29.82 in 4.0 mi South 10.4 mph - N/A   Overcast
8:56 AM 60.8 °F 60.8 °F 100% 29.82 in 4.0 mi South 9.2 mph - N/A   Overcast
9:16 AM 62.6 °F 60.8 °F 94% 29.81 in 5.0 mi South 10.4 mph - N/A   Overcast
9:36 AM 62.6 °F 59.0 °F 88% 29.80 in 5.0 mi South 10.4 mph 18.4 mph N/A   Overcast
9:56 AM 62.6 °F 59.0 °F 88% 29.79 in 7.0 mi South 12.7 mph 18.4 mph N/A   Overcast
10:16 AM 62.6 °F 59.0 °F 88% 29.79 in 7.0 mi South 15.0 mph 20.7 mph N/A   Overcast
10:36 AM 62.6 °F 59.0 °F 88% 29.78 in 10.0 mi South 16.1 mph 23.0 mph N/A   Overcast
10:56 AM 64.4 °F 59.0 °F 83% 29.76 in 10.0 mi SSW 15.0 mph 24.2 mph N/A   Mostly Cloudy
11:16 AM 64.4 °F 59.0 °F 83% 29.75 in 10.0 mi South 16.1 mph - N/A   Mostly Cloudy
11:36 AM 64.4 °F 59.0 °F 83% 29.74 in 10.0 mi South 19.6 mph 25.3 mph N/A   Overcast
11:56 AM 66.2 °F 59.0 °F 78% 29.72 in 10.0 mi South 18.4 mph 27.6 mph N/A   Mostly Cloudy
12:16 PM 66.2 °F 59.0 °F 78% 29.71 in 10.0 mi South 19.6 mph 29.9 mph N/A   Scattered Clouds
12:36 PM 66.2 °F 57.2 °F 73% 29.70 in 10.0 mi South 20.7 mph 28.8 mph N/A   Scattered Clouds
12:56 PM 66.2 °F 59.0 °F 78% 29.68 in 10.0 mi South 20.7 mph 26.5 mph N/A   Clear
1:16 PM 68.0 °F 57.2 °F 68% 29.68 in 10.0 mi SSW 19.6 mph 26.5 mph N/A   Clear
1:36 PM 68.0 °F 57.2 °F 68% 29.68 in 10.0 mi SSW 17.3 mph 33.4 mph N/A   Scattered Clouds
1:56 PM 68.0 °F 57.2 °F 68% 29.68 in 10.0 mi SSW 17.3 mph 27.6 mph N/A   Overcast
2:16 PM 66.2 °F 57.2 °F 73% 29.67 in 10.0 mi SSW 19.6 mph 25.3 mph N/A Rain Rain
2:36 PM 66.2 °F 57.2 °F 73% 29.66 in 10.0 mi SSW 18.4 mph 24.2 mph N/A   Overcast
2:56 PM 66.2 °F 57.2 °F 73% 29.65 in 10.0 mi SSW 18.4 mph 28.8 mph N/A   Overcast
3:16 PM 66.2 °F 57.2 °F 73% 29.65 in 10.0 mi SSW 20.7 mph 27.6 mph N/A Rain Light Rain
3:36 PM 64.4 °F 57.2 °F 77% 29.64 in 10.0 mi SSW 19.6 mph 26.5 mph N/A Rain Light Rain
3:56 PM 64.4 °F 57.2 °F 77% 29.61 in 10.0 mi South 16.1 mph 29.9 mph N/A   Light Drizzle
4:16 PM 64.4 °F 59.0 °F 83% 29.61 in 10.0 mi South 18.4 mph 24.2 mph N/A Rain Light Rain
4:36 PM 64.4 °F 59.0 °F 83% 29.59 in 10.0 mi South 13.8 mph 25.3 mph N/A   Overcast
4:56 PM 64.4 °F 59.0 °F 83% 29.58 in 10.0 mi South 13.8 mph 21.9 mph N/A   Mostly Cloudy
5:16 PM 66.2 °F 59.0 °F 78% 29.58 in 10.0 mi South 16.1 mph 26.5 mph N/A   Mostly Cloudy
5:36 PM 66.2 °F 59.0 °F 78% 29.57 in 10.0 mi South 18.4 mph 26.5 mph N/A   Mostly Cloudy
5:56 PM 66.2 °F 59.0 °F 78% 29.56 in 10.0 mi SSW 20.7 mph 29.9 mph N/A   Overcast
6:16 PM 66.2 °F 59.0 °F 78% 29.56 in 10.0 mi South 23.0 mph 36.8 mph N/A   Overcast
6:36 PM 64.4 °F 59.0 °F 83% 29.56 in 3.0 mi South 21.9 mph 31.1 mph N/A Rain Rain
6:56 PM 62.6 °F 60.8 °F 94% 29.54 in 2.5 mi South 12.7 mph - N/A Rain Light Rain
7:36 PM 62.6 °F 59.0 °F 88% 29.52 in 10.0 mi South 11.5 mph 21.9 mph N/A   Mostly Cloudy
7:56 PM 62.6 °F 59.0 °F 88% 29.51 in 10.0 mi South 12.7 mph 21.9 mph N/A   Clear
8:16 PM 62.6 °F 59.0 °F 88% 29.50 in 10.0 mi South 15.0 mph 21.9 mph N/A   Scattered Clouds
8:36 PM 64.4 °F 59.0 °F 83% 29.50 in 10.0 mi South 18.4 mph 24.2 mph N/A Rain Light Rain
8:56 PM 62.6 °F 59.0 °F 88% 29.49 in 10.0 mi South 13.8 mph 24.2 mph N/A   Mostly Cloudy
9:16 PM 62.6 °F 59.0 °F 88% 29.48 in 10.0 mi South 16.1 mph 21.9 mph N/A   Mostly Cloudy
9:56 PM 62.6 °F 59.0 °F 88% 29.46 in 10.0 mi South 15.0 mph 21.9 mph N/A   Mostly Cloudy
10:16 PM 62.6 °F 57.2 °F 82% 29.45 in 10.0 mi South 17.3 mph 26.5 mph N/A   Overcast
10:36 PM 62.6 °F 57.2 °F 82% 29.43 in 10.0 mi South 19.6 mph 28.8 mph N/A   Overcast
11:36 PM 62.6 °F 57.2 °F 82% 29.41 in 10.0 mi SSW 17.3 mph 28.8 mph N/A   Overcast
11:56 PM 62.6 °F 57.2 °F 82% 29.40 in 10.0 mi SSW 13.8 mph 26.5 mph N/A   Overcast